KB1PVH-13 Weather Reports


time (UTC)temp
C
wind
direction
speed
KPH
gust
KPH
rain 1hr
cm
rain 24hr
cm
rain mn
cm
humidity
%
barometer
mb
20260507104017 8 0.0 0.0 0.03 0.91 0.48 95 924.2
20260507103016 9 0.0 0.0 0.03 0.91 0.48 95 924.3
20260507102016 9 0.0 0.0 0.05 0.91 0.48 95 924.3
20260507101016 9 0.0 0.0 0.10 0.91 0.48 95 924.8
20260507100016 9 0.0 0.0 0.13 0.91 0.48 95 924.1
20260507095016 9 0.0 0.0 0.13 0.89 0.46 95 924.2
20260507094016 9 0.0 0.0 0.18 0.89 0.46 95 924.4
20260507093016 9 0.0 0.0 0.23 0.89 0.46 94 923.6
20260507092016 9 0.0 0.0 0.28 0.86 0.43 94 923.8
20260507091036 9 0.0 0.0 0.25 0.81 0.38 94 924.0
20260507090017 9 0.0 0.0 0.23 0.79 0.36 94 923.6
20260507085016 9 0.0 1.6 0.23 0.76 0.33 94 923.9
20260507084016 9 0.0 0.0 0.20 0.71 0.28 94 924.3
20260507083016 9 0.0 0.0 0.15 0.66 0.23 94 924.2
20260507082016 9 0.0 0.0 0.10 0.58 0.15 93 924.1
20260507081016 9 0.0 0.0 0.08 0.56 0.13 93 924.3
20260507080016 10 0.0 0.0 0.08 0.56 0.13 91 924.1
20260507075017 10 0.0 0.0 0.05 0.53 0.10 90 924.3
20260507074036 10 0.0 1.6 0.03 0.51 0.08 89 924.3
20260507073016 10 0.0 0.0 0.03 0.51 0.08 90 924.0
20260507072016 10 0.0 0.0 0.00 0.48 0.05 89 924.2
20260507071016 10 0.0 0.0 0.00 0.48 0.05 91 923.4
20260507070037 11 0.0 0.0 0.00 0.48 0.05 89 923.0
20260507065016 11 0.0 0.0 0.00 0.48 0.05 89 923.2
20260507064016 11 0.0 0.0 0.00 0.48 0.05 87 923.5
20260507063016 11 0.0 0.0 0.00 0.48 0.05 87 923.4
20260507062016 11 0.0 4.8 0.00 0.48 0.05 88 923.6
20260507061016 11 0.0 6.4 0.00 0.48 0.05 90 923.4
20260507060015 12 0.0 0.0 0.00 0.48 0.05 92 923.5
20260507055016 12 0.0 0.0 0.00 0.48 0.05 92 923.6
20260507054017 12 0.0 0.0 0.00 0.48 0.05 93 923.7
20260507053036 12 0.0 1.6 0.00 0.48 0.05 93 923.5
20260507052016 12 0.0 0.0 0.03 0.48 0.05 93 923.7
20260507051015 12 0.0 0.0 0.03 0.48 0.05 93 923.9
20260507050015 13 0.0 0.0 0.05 0.48 0.05 93 923.8
20260507045016 13 0.0 0.0 0.08 0.48 0.05 93 923.4
20260507044016 13 0.0 3.2 0.13 0.48 0.05 93 923.6
20260507043017 13 0.0 3.2 0.15 0.48 0.05 94 923.4
20260507042015 14 0.0 0.0 0.13 0.46 0.03 94 923.5
20260507041015 14 0.0 0.0 0.13 0.46 0.03 94 923.5
20260507040037 14 0.0 1.6 0.10 0.43 0.43 93 923.6
20260507035016 15 0.0 0.0 0.08 0.41 0.41 93 923.4
20260507034016 15 0.0 0.0 0.03 0.36 0.36 93 923.9
20260507033015 15 0.0 1.6 0.00 0.33 0.33 93 923.8
20260507032016 15 0.0 1.6 0.00 0.33 0.33 93 923.5
20260507031015 15 0.0 1.6 0.00 0.33 0.33 93 923.2
20260507030015 15 0.0 8.0 0.00 0.33 0.33 93 923.3
20260507025015 15 0.0 0.0 0.00 0.33 0.33 93 923.3
20260507024015 15 0.0 1.6 0.00 0.33 0.33 93 923.2
20260507023035 15 0.0 8.0 0.00 0.33 0.33 93 923.2
20260507022015 15 0.0 8.0 0.00 0.33 0.33 93 923.1
20260507021015 15 270 1.6 6.4 0.00 0.33 0.33 93 922.8
20260507020015 15 135 1.6 9.7 0.00 0.33 0.33 93 923.2
20260507015019 15 248 1.6 6.4 0.00 0.33 0.33 93 923.1
20260507014017 14 0.0 4.8 0.00 0.33 0.33 93 923.2
20260507013038 14 248 1.6 11.3 0.00 0.33 0.33 93 922.9
20260507012017 14 248 1.6 4.8 0.00 0.33 0.33 93 923.2
20260507011018 14 0.0 4.8 0.00 0.33 0.33 93 923.1
20260507010017 14 0.0 3.2 0.00 0.33 0.33 93 923.2
20260507005017 14 248 1.6 8.0 0.00 0.33 0.33 93 923.2
20260507004037 14 0.0 4.8 0.00 0.33 0.33 93 923.2
20260507003015 14 270 1.6 9.7 0.00 0.33 0.33 93 923.5
20260507002017 14 158 3.2 11.3 0.00 0.33 0.33 92 923.6
20260507001017 14 248 3.2 9.7 0.05 0.33 0.33 92 923.1
20260507000017 14 248 1.6 9.7 0.05 0.33 0.33 92 923.2
20260506235017 14 0.0 4.8 0.05 0.33 0.33 92 923.2
20260506234017 15 0.0 4.8 0.05 0.33 0.33 92 923.1
20260506233017 15 0.0 6.4 0.05 0.33 0.33 92 923.1
20260506232037 15 248 3.2 14.5 0.05 0.33 0.33 91 923.1
20260506231017 15 270 1.6 8.0 0.00 0.28 0.28 91 923.0
20260506230017 15 270 3.2 14.5 0.00 0.28 0.28 91 923.0
20260506225100 15 270 3.2 12.9 0.03 0.28 0.28 91 923.1
20260506224017 15 270 1.6 4.8 0.03 0.28 0.28 91 923.1
20260506223037 15 0.0 3.2 0.03 0.28 0.28 91 923.1
20260506222038 15 293 3.2 9.7 0.03 0.28 0.28 91 922.8
20260506221018 15 0.0 3.2 0.05 0.28 0.28 91 922.9
20260506220017 15 248 1.6 6.4 0.05 0.28 0.28 91 923.1
20260506215017 15 0.0 3.2 0.05 0.25 0.25 91 923.1
20260506214038 15 158 1.6 8.0 0.05 0.25 0.25 91 923.2
20260506213017 15 270 3.2 9.7 0.08 0.25 0.25 90 923.4
20260506212017 15 248 1.6 8.0 0.08 0.25 0.25 90 923.6
20260506211038 15 270 4.8 14.5 0.08 0.23 0.23 89 923.7
20260506210017 15 135 1.6 4.8 0.08 0.23 0.23 90 923.7
20260506205017 15 270 3.2 19.3 0.05 0.20 0.20 89 923.7
20260506204017 15 135 1.6 9.7 0.05 0.20 0.20 89 923.8
20260506203017 15 270 1.6 6.4 0.05 0.18 0.18 89 924.0
20260506202017 15 0.0 4.8 0.05 0.18 0.18 89 923.7
20260506201017 15 158 1.6 12.9 0.05 0.15 0.15 89 924.0
20260506200018 15 270 1.6 12.9 0.08 0.15 0.15 88 924.2
20260506195017 15 270 1.6 9.7 0.10 0.15 0.15 87 924.1
20260506194017 15 270 1.6 12.9 0.13 0.15 0.15 87 924.0
20260506193017 15 248 1.6 6.4 0.13 0.13 0.13 87 924.2
20260506192017 15 270 3.2 9.7 0.13 0.13 0.13 86 923.9
20260506191017 16 270 3.2 8.0 0.10 0.10 0.10 84 924.1
20260506190018 16 158 3.2 8.0 0.08 0.08 0.08 83 924.5
20260506185018 16 270 3.2 11.3 0.05 0.05 0.05 82 924.6
20260506184016 17 270 3.2 12.9 0.03 0.03 0.03 78 924.6
20260506183017 18 158 1.6 8.0 0.00 0.00 0.00 75 924.7
20260506182017 18 248 4.8 11.3 0.00 0.00 0.00 72 924.6
20260506181017 18 248 4.8 14.5 0.00 0.00 0.00 70 924.6
20260506180017 19 270 4.8 11.3 0.00 0.00 0.00 66 924.9
20260506175017 20 270 4.8 11.3 0.00 0.00 0.00 64 924.7
20260506174017 20 270 3.2 12.9 0.00 0.00 0.00 61 925.2
20260506173038 21 135 4.8 11.3 0.00 0.00 0.00 58 924.8
20260506172017 21 248 6.4 19.3 0.00 0.00 0.00 58 924.9
20260506171017 21 248 8.0 22.5 0.00 0.00 0.00 56 925.2
20260506170018 22 270 6.4 16.1 0.00 0.00 0.00 56 925.0
20260506165037 21 293 6.4 14.5 0.00 0.00 0.00 56 924.7
20260506164036 22 248 4.8 14.5 0.00 0.00 0.00 56 925.3
20260506163016 21 270 6.4 17.7 0.00 0.00 0.00 58 925.1
20260506162037 21 270 4.8 12.9 0.00 0.00 0.00 58 925.4
20260506161016 21 248 6.4 16.1 0.00 0.00 0.00 56 925.7
20260506160037 22 248 6.4 12.9 0.00 0.00 0.00 56 925.4
20260506155017 22 158 4.8 17.7 0.00 0.00 0.00 57 925.7
20260506154036 22 270 6.4 29.0 0.00 0.00 0.00 57 925.6
20260506153017 21 248 4.8 11.3 0.00 0.00 0.00 58 926.0
20260506152016 22 248 3.2 9.7 0.00 0.00 0.00 58 926.1
20260506151036 21 248 3.2 14.5 0.00 0.00 0.00 58 926.2
20260506150038 21 248 3.2 9.7 0.00 0.00 0.00 61 926.0
20260506145016 20 248 6.4 19.3 0.00 0.00 0.00 62 926.4
20260506144016 20 270 3.2 14.5 0.00 0.00 0.00 62 926.1
20260506143016 20 135 4.8 17.7 0.00 0.00 0.00 61 926.4
20260506142036 20 270 4.8 11.3 0.00 0.00 0.00 62 926.3
20260506141016 20 270 3.2 8.0 0.00 0.00 0.00 63 926.2
20260506140016 20 270 6.4 17.7 0.00 0.00 0.00 62 926.2
20260506135016 20 135 1.6 6.4 0.00 0.00 0.00 66 925.9
20260506134017 19 270 4.8 14.5 0.00 0.00 0.00 68 926.2
20260506133016 19 248 4.8 12.9 0.00 0.00 0.00 69 926.3
20260506132016 18 270 3.2 8.0 0.00 0.00 0.00 71 926.7
20260506131016 18 270 4.8 11.3 0.00 0.00 0.00 73 926.8
20260506130016 17 248 3.2 9.7 0.00 0.00 0.00 73 926.6
20260506125016 17 270 4.8 11.3 0.00 0.00 0.00 74 926.8
20260506124037 17 248 4.8 14.5 0.00 0.00 0.00 75 926.8
20260506123036 17 248 4.8 11.3 0.00 0.00 0.00 75 926.6
20260506122016 17 135 3.2 14.5 0.00 0.00 0.00 75 927.0
20260506121037 17 248 4.8 9.7 0.00 0.00 0.00 77 926.7
20260506120016 16 248 4.8 14.5 0.00 0.00 0.00 78 926.8
20260506115036 16 270 3.2 12.9 0.00 0.00 0.00 79 926.7
20260506114056 16 248 3.2 9.7 0.00 0.00 0.00 80 926.8
20260506113016 16 0.0 4.8 0.00 0.00 0.00 80 926.9
20260506112016 16 248 3.2 9.7 0.00 0.00 0.00 79 927.5
20260506111016 16 248 1.6 9.7 0.00 0.00 0.00 80 927.0
20260506110016 15 248 1.6 8.0 0.00 0.00 0.00 80 927.0
20260506105017 15 270 1.6 6.4 0.00 0.00 0.00 81 927.1